• Join FlightAware (Why Join?)
  • Login
  • US Flag GB Flag 
13:13 EST


 

Airport Tracker/Info


-or-


 

Live Flight TrackerFlight Track Log ✈ DAL6234 ✈ 21-Apr-2013 ✈ KSYR - KLGA

Flight Track Log - Related Links

Times and Time Zones

All times are in EDT time to prevent confusion due to time zone crossing. See the DAL6234 flight status page for this flight to view local times or setup timezone preferences in your user account.

Time Position Orientation Groundspeed Altitude Reporting Facility
EDT Latitude Longitude Course Direction KTS MPH feet Rate Location/Type
18:18 43.1097 -76.1292 217° Southwest 134 154 1,300  Level Boston Center
18:20 43.0686 -76.1722 217° Southwest 229 264 4,300 2,400 Climbing Boston Center
18:20 43.0328 -76.1244 136° Southeast 268 308 6,400 2,940 Climbing Boston Center
18:21 42.9831 -76.0478 132° Southeast 273 314 9,600 2,700 Climbing Boston Center
18:22 42.9275 -75.9622 132° Southeast 284 327 11,800 2,160 Climbing Boston Center
18:23 42.8639 -75.8594 130° Southeast 314 361 14,000 2,220 Climbing Boston Center
18:24 42.7961 -75.7567 132° Southeast 347 399 16,300 1,860 Climbing Boston Center
18:25 42.7261 -75.6483 131° Southeast 366 421 17,800 1,740 Climbing Boston Center
18:26 42.6481 -75.5283 131° Southeast 394 453 19,800 1,560 Climbing Boston Center
18:27 42.5722 -75.4089 131° Southeast 406 467 21,000 600 Climbing Boston Center
18:28 42.4919 -75.2783 130° Southeast 424 488 21,000  Level Boston Center
18:29 42.4269 -75.1319 121° Southeast 443 510 21,000  Level Boston Center
18:30 42.3700 -74.9778 117° Southeast 450 518 21,000 -300 Level Boston Center
18:31 42.3128 -74.8239 117° Southeast 456 525 20,400 -720 Descending Boston Center
18:32 42.2556 -74.6731 117° Southeast 456 525 19,600 -780 Descending Boston Center
18:33 42.2000 -74.5225 116° Southeast 456 525 18,900 -660 Descending Boston Center
18:34 42.1403 -74.3608 116° Southeast 451 519 18,300 -480 Descending Boston Center
18:35 42.0647 -74.2578 135° Southeast 426 490 18,000 -180 Descending Boston Center
18:36 41.9514 -74.1792 153° Southeast 420 483 18,000 -480 Level Boston Center
18:37 41.8564 -74.1181 154° Southeast 420 483 17,100 -1,560 Descending Boston Center
18:38 41.7450 -74.0483 155° Southeast 414 476 14,900 -2,280 Descending Boston Center
18:39 41.6478 -73.9903 156° South 395 455 12,600 -1,800 Descending Boston Center
18:40 41.5569 -73.9325 155° Southeast 379 436 11,300 -1,200 Descending Boston Center
18:41 41.4825 -73.8867 155° Southeast 326 375 10,200 -1,080 Descending Boston Center
18:42 41.4500 -73.8667 155° Southeast 290 334 9,900 -1,020 Descending New York TRACON
18:43 41.3833 -73.8333 159° South 278 320 8,900 -1,200 Descending New York TRACON
18:44 41.3167 -73.7833 151° Southeast 278 320 7,500 -1,380 Descending New York TRACON
18:45 41.2667 -73.7167 135° Southeast 257 296 6,200 -780 Descending New York TRACON
18:46 41.2167 -73.6833 153° Southeast 192 221 6,000 -540 Descending New York TRACON
18:47 41.1667 -73.6500 153° Southeast 186 214 5,200 -540 Descending New York TRACON
18:48 41.1333 -73.6000 132° Southeast 191 220 5,000 -360 Descending New York TRACON
18:49 41.0833 -73.6333 207° Southwest 193 222 4,500 -540 Descending New York TRACON
18:50 41.0333 -73.6667 207° Southwest 194 223 4,000 -300 Descending New York TRACON
18:51 40.9833 -73.7000 207° Southwest 189 217 4,000 -240 Level New York TRACON
18:52 40.9500 -73.7333 217° Southwest 166 191 3,600 -480 Descending New York TRACON
18:53 40.9167 -73.7667 217° Southwest 155 178 3,100 -660 Descending New York TRACON
18:54 40.8833 -73.8000 217° Southwest 152 175 2,300 -840 Descending New York TRACON
18:55 40.8500 -73.8167 201° Southwest 138 159 1,500 -780 Descending New York TRACON
18:56 40.8167 -73.8500 217° Southwest 132 152 800 -720 Descending New York TRACON
18:58 40.7772 -73.8726 180° South  Level Estimated
19:05 40.7772 -73.8726 180° South  Level Estimated
19:06 40.7772 -73.8726 180° South  Level Estimated